{"data":{"norad_id":67046,"epoch":"2026-05-24T21:47:58.562016Z","epoch_age_seconds":79618,"freshness":"FRESH","line1":"1 67046U 25294S   26144.90831669  .00018493  00000+0  67977-3 0  9997","line2":"2 67046  43.0035 327.8261 0002098 275.7148  84.3464 15.27583231 26455","mean_motion":15.27583231,"eccentricity":0.0002098,"inclination_deg":43.0035,"raan_deg":327.8261,"arg_perigee_deg":275.7148,"mean_anomaly_deg":84.3464,"bstar":0.00067977,"rev_number":2645,"period_min":94.266549329514,"perigee_km":481.59994646717,"apogee_km":484.47889609354,"semimajor_km":6861.1764212804,"source":"CELESTRAK","updated_at":"2026-05-25T13:38:21.439679Z"}}